Wetbulb
58.95 58.70 58.48 58.70 58.68 58.87 59.28 57.76 57.84 57.71 57.63 56.79 56.40 55.56 55.95 56.51 52.54 42.62 38.99 45.13 51.29 56.75 55.29 45.69 43.47 44.18 43.84 41.14 41.49 38.04 32.42 29.09 29.36 31.06 32.56 36.66 35.44 37.83 38.71 39.94 41.44 46.25 42.96 47.27 53.18
58.54 58.55 58.37 58.36 58.34 58.47 58.97 57.89 57.61 57.33 57.08 55.80 55.57 55.22 55.51 55.29 42.74 39.68 48.39 55.61 56.11 55.60 44.99 41.91 40.47 42.63 39.60 38.65 38.90 35.07 30.37 30.96 32.06 31.23 31.33 35.27 35.47 34.87 36.38 36.82 38.49 44.00 48.10 51.45 53.20
58.33 58.14 58.45 58.54 58.46 58.33 58.47 58.66 57.42 57.09 56.22 55.87 55.65 56.17 55.48 49.16 39.32 38.70 53.17 55.29 55.73 52.07 44.49 42.77 41.13 41.10 37.15 36.96 35.80 33.93 31.44 33.56 33.00 34.40 34.17 35.15 34.19 34.76 33.48 33.44 35.72 39.76 46.52 49.76 52.20
57.86 57.90 57.85 58.13 58.00 58.50 58.20 58.63 57.11 56.73 55.57 56.06 56.20 55.86 54.11 42.88 32.45 40.49 53.23 53.84 54.06 46.31 42.48 40.13 39.48 36.31 34.25 32.75 36.12 31.71 34.83 34.95 35.82 35.99 34.60 33.42 34.83 33.52 32.35 35.06 37.60 39.51 48.65 48.31 49.98
57.98 57.56 57.50 57.67 57.69 58.02 58.13 58.32 56.77 56.35 56.26 55.88 55.44 54.48 44.81 37.56 35.86 43.38 50.71 48.90 44.96 43.94 40.35 38.29 36.91 34.87 32.93 34.38 34.96 32.54 33.21 35.62 35.17 36.03 34.09 35.50 31.87 31.91 32.57 34.10 43.61 47.64 48.20 47.57 47.83
57.85 57.35 57.28 57.37 57.17 56.67 57.74 57.41 56.60 56.03 55.56 55.61 55.77 52.40 39.96 34.62 42.08 42.24 43.75 45.07 43.83 42.38 40.12 40.22 36.50 36.56 35.10 33.64 33.04 33.72 33.98 33.37 35.01 34.87 34.95 33.09 31.07 32.70 31.94 35.90 43.79 46.72 46.38 46.34 46.56
57.99 57.41 56.99 57.07 56.33 56.45 57.36 57.16 56.21 55.99 55.35 54.45 54.38 42.66 37.94 35.35 40.52 42.84 44.10 43.11 43.83 42.37 39.23 40.09 39.89 37.40 34.94 32.79 35.69 33.84 30.61 32.24 33.89 34.65 33.75 33.35 30.69 29.55 32.07 35.72 40.35 42.97 44.29 45.10 45.19
57.84 57.13 56.73 56.84 55.96 56.52 57.10 56.12 55.86 55.71 55.88 54.92 52.91 39.90 34.30 41.65 40.90 43.62 43.67 42.98 44.55 44.17 41.76 41.56 41.67 39.09 36.06 35.15 35.29 30.93 29.40 26.51 32.09 33.83 34.28 32.87 27.66 31.86 32.93 31.42 32.56 34.53 35.08 37.14 36.85
57.23 56.73 56.60 55.80 54.85 56.21 56.66 56.28 54.96 54.92 54.38 50.95 42.16 37.97 33.65 46.60 41.51 42.75 42.70 41.45 42.73 43.06 42.65 45.23 40.88 36.11 37.42 31.23 28.02 30.36 22.74 26.79 29.25 33.07 31.69 31.40 29.22 32.98 33.12 32.29 31.40 30.94 32.08 34.62 35.27
56.94 56.44 56.06 55.00 55.79 56.34 55.57 54.77 53.77 48.96 45.34 44.54 42.48 37.71 39.31 37.40 40.80 42.15 42.62 43.37 42.11 41.80 40.50 40.84 36.57 31.42 29.62 27.87 19.72 25.26 26.38 29.13 28.47 31.21 30.68 28.37 30.37 32.66 31.50 31.66 31.39 30.44 31.73 33.01 34.14
56.44 55.75 55.82 55.67 55.23 52.83 48.58 44.90 41.99 38.64 38.77 35.79 34.95 35.73 38.23 41.66 43.35 41.58 42.27 42.16 43.37 40.82 33.54 38.06 30.70 24.74 27.20 29.05 30.27 28.78 27.79 27.08 29.53 31.04 28.27 26.89 27.23 30.63 31.18 29.75 30.09 30.14 31.60 32.33 33.18
55.38 55.10 53.68 53.80 54.32 51.13 43.16 38.16 37.16 38.63 34.40 39.61 39.28 39.71 40.97 41.10 38.38 41.18 44.18 38.75 37.46 33.34 36.09 32.68 28.14 31.90 32.98 32.90 30.50 30.06 28.05 27.24 29.78 30.37 27.55 25.81 26.79 29.68 30.41 29.99 30.23 30.56 30.40 31.67 32.26
54.16 53.24 53.47 53.60 52.65 45.62 41.63 39.98 44.06 41.99 34.24 36.44 38.45 37.85 38.20 40.20 35.83 37.17 40.51 38.61 32.14 29.21 29.50 28.65 30.43 34.43 32.71 29.67 29.90 27.25 27.14 25.73 25.81 27.29 25.11 22.77 24.48 26.06 28.42 29.41 29.72 29.97 29.97 30.57 31.88
53.87 53.23 52.84 53.31 45.50 41.76 39.51 44.23 43.96 40.39 23.12 29.63 34.19 37.32 38.92 37.93 34.43 40.12 39.50 36.42 33.41 28.10 29.25 28.17 31.69 31.22 29.00 26.70 27.55 27.20 26.75 26.51 25.25 19.64 15.77 21.90 14.38 23.61 25.30 26.47 27.57 28.84 28.82 29.44 29.73
52.43 52.08 51.62 49.61 41.34 39.16 41.70 44.04 42.86 37.67 11.88 31.02 33.21 40.47 37.68 34.64 33.86 36.24 38.67 36.24 29.55 28.09 27.73 26.46 27.09 27.11 26.23 25.75 27.24 25.47 26.91 25.70 23.65 14.45 13.74 15.79 8.37 20.26 22.92 23.30 24.87 26.63 27.64 28.19 29.98
50.24 51.49 51.00 45.36 42.29 41.19 43.14 42.09 38.26 22.67 11.80 23.43 31.28 31.09 31.12 32.02 32.37 33.95 34.15 36.56 33.14 29.13 28.62 26.83 28.85 27.54 26.82 27.37 27.42 26.88 23.40 21.61 19.74 11.10 5.00 5.20 9.08 17.15 21.39 24.04 24.62 25.29 26.61 28.08 28.92
50.13 48.20 45.93 43.61 38.12 40.92 41.39 37.10 23.89 16.09 24.77 23.49 26.95 30.65 27.96 27.77 29.65 29.27 28.64 26.42 24.12 18.03 17.52 24.09 25.89 27.49 28.06 25.52 27.04 24.04 14.71 6.74 8.16 4.95 9.59 -1.41 9.93 21.06 24.68 25.56 25.18 26.92 26.80 27.17 28.50
50.00 46.70 42.86 40.80 39.96 40.52 36.87 28.87 16.07 14.20 18.00 29.23 29.37 28.73 25.75 27.25 26.38 27.28 26.37 22.68 25.99 24.00 15.91 10.86 14.60 21.43 26.84 24.79 22.83 22.14 14.22 8.90 5.67 5.59 8.69 0.54 8.86 21.16 23.97 24.66 25.09 25.80 26.24 27.50 27.71
48.83 40.06 37.86 40.00 40.64 38.52 32.78 18.87 17.96 22.00 29.12 28.24 28.27 21.04 20.18 25.70 23.88 23.75 22.70 22.53 24.80 23.89 18.18 13.35 16.55 25.23 26.52 25.64 23.81 20.36 11.05 17.76 2.64 -8.30 0.90 8.59 15.25 23.33 23.52 21.42 23.39 24.83 25.18 25.83 26.97
41.09 35.99 34.94 39.54 37.97 34.77 27.39 21.57 20.25 28.88 30.72 29.41 23.91 22.22 13.09 16.58 21.48 18.96 19.55 25.08 25.44 26.70 23.59 20.76 13.24 17.66 25.76 25.46 23.61 20.39 21.60 11.58 7.58 4.35 0.19 5.11 -1.91 17.31 16.65 16.48 18.07 23.25 23.47 24.69 26.22
36.56 32.90 36.69 37.79 35.41 30.48 21.83 13.50 21.62 29.49 31.03 28.23 25.07 18.65 23.10 18.38 20.34 18.18 20.53 25.05 25.67 24.26 25.91 19.19 13.89 15.72 21.89 12.69 12.37 14.92 12.29 12.65 11.95 11.61 3.41 0.70 10.36 14.57 13.76 9.18 13.60 16.71 22.77 20.45 22.10
32.76 29.01 37.00 35.78 29.28 8.21 15.55 16.89 31.24 30.61 31.12 30.25 27.81 25.74 21.93 22.57 21.34 14.34 21.38 23.62 27.51 24.89 22.78 25.23 19.90 9.95 14.00 19.13 21.22 20.85 16.47 18.78 11.08 6.12 6.74 8.58 10.59 16.93 9.68 4.80 3.81 16.93 19.15 20.76 21.58
27.48 27.12 34.08 35.25 22.98 13.91 20.00 23.43 29.25 29.09 28.89 28.41 26.50 27.52 24.71 17.26 16.81 22.67 23.44 28.90 29.56 26.49 24.58 25.12 13.08 5.64 15.45 16.28 18.86 16.33 20.79 18.74 12.47 15.93 8.19 5.87 15.39 12.27 4.80 9.47 12.30 14.16 20.01 18.89 20.46
28.85 26.33 27.79 27.91 23.91 24.22 18.29 20.99 23.22 29.91 29.66 29.71 28.73 28.18 24.94 16.75 22.48 15.98 23.72 27.81 29.00 27.89 34.21 29.61 20.86 12.37 13.01 13.52 10.41 12.72 16.71 19.80 14.61 4.33 14.88 11.52 20.24 22.47 24.01 13.34 17.57 17.68 16.43 18.80 17.76
26.75 22.62 23.97 19.78 21.90 23.91 24.56 24.52 23.38 22.20 28.40 28.93 24.30 26.76 22.87 15.63 17.59 13.47 23.01 25.00 27.80 31.14 27.12 24.29 10.85 15.10 14.09 11.65 9.95 13.75 16.68 14.94 13.00 16.75 11.08 20.54 7.91 20.50 24.23 24.20 22.29 9.90 13.65 16.68 18.19
26.72 26.22 23.91 20.38 26.67 25.00 26.66 24.69 23.40 23.14 26.92 24.91 21.21 25.69 25.17 17.08 22.54 19.99 22.92 23.67 23.20 25.01 24.91 24.26 8.70 9.70 8.46 15.85 17.32 14.07 18.09 18.19 16.27 17.59 11.91 17.45 17.26 23.37 20.51 1.71 10.49 17.10 17.05 17.48 18.05
29.63 30.74 29.22 26.17 25.50 23.20 23.33 25.42 26.03 27.00 27.23 28.38 27.13 25.88 24.73 26.36 26.06 25.72 26.38 26.01 25.48 23.25 23.05 15.91 7.61 2.67 3.37 7.60 6.50 8.14 9.21 12.68 11.00 7.69 12.36 8.72 15.47 0.93 18.67 20.96 13.35 18.15 13.54 16.60 17.98
MSLP
1023.18 1023.02 1022.73 1022.50 1022.26 1021.94 1021.56 1021.25 1020.95 1020.59 1020.34 1020.18 1019.93 1019.66 1019.29 1019.39 1019.02 1018.94 1019.75 1020.26 1019.61 1018.99 1018.70 1018.65 1018.39 1018.46 1018.35 1018.74 1018.93 1019.62 1020.44 1020.88 1020.33 1019.90 1019.44 1019.18 1018.79 1018.84 1018.95 1019.21 1019.89 1020.23 1020.78 1021.14 1021.16
1023.27 1023.16 1022.96 1022.59 1022.42 1022.02 1021.62 1021.35 1021.02 1020.81 1020.35 1020.28 1020.06 1019.79 1019.54 1019.40 1019.67 1020.04 1020.31 1019.86 1019.41 1019.13 1019.15 1019.12 1018.85 1018.55 1018.81 1019.02 1019.44 1020.08 1020.74 1020.57 1020.34 1019.92 1019.89 1019.69 1019.48 1019.60 1019.43 1019.71 1020.06 1020.55 1021.12 1021.32 1021.67
1023.33 1023.22 1023.07 1022.86 1022.46 1022.15 1021.79 1021.47 1021.15 1020.84 1020.46 1020.25 1020.17 1019.94 1019.59 1019.34 1019.93 1020.57 1020.13 1019.66 1019.43 1019.44 1019.36 1019.27 1019.07 1018.98 1019.20 1019.38 1019.78 1020.28 1020.57 1020.52 1020.51 1020.22 1020.26 1020.19 1020.03 1019.88 1019.93 1020.10 1020.39 1020.93 1021.47 1021.84 1022.10
1023.22 1023.27 1023.06 1022.84 1022.55 1022.28 1021.94 1021.60 1021.25 1020.87 1020.57 1020.30 1020.14 1019.90 1019.54 1019.40 1020.70 1020.69 1020.31 1019.84 1019.57 1019.28 1019.27 1019.25 1019.20 1019.46 1019.80 1019.86 1020.01 1020.38 1020.64 1020.74 1020.85 1020.77 1020.74 1020.79 1020.75 1020.44 1020.54 1020.59 1020.98 1021.02 1021.46 1022.10 1022.56
1023.25 1023.13 1023.01 1022.82 1022.63 1022.41 1021.99 1021.62 1021.34 1020.93 1020.61 1020.40 1020.08 1019.97 1019.69 1020.15 1021.06 1020.70 1020.42 1019.96 1019.49 1019.28 1019.52 1019.55 1019.54 1019.80 1020.14 1020.19 1020.32 1020.58 1020.82 1020.89 1021.02 1021.15 1021.15 1021.05 1021.18 1021.14 1020.90 1020.86 1021.14 1021.30 1021.82 1022.25 1022.74
1023.13 1023.02 1022.92 1022.80 1022.65 1022.37 1021.98 1021.56 1021.27 1020.97 1020.67 1020.37 1020.10 1019.84 1019.97 1020.61 1021.12 1020.92 1020.57 1020.02 1019.89 1019.78 1019.83 1019.68 1019.94 1019.92 1020.25 1020.60 1020.92 1021.15 1021.15 1021.29 1021.44 1021.62 1021.49 1021.56 1021.47 1021.28 1021.15 1021.24 1021.54 1021.92 1022.29 1022.62 1022.81
1022.95 1022.92 1022.90 1022.74 1022.53 1022.32 1021.98 1021.62 1021.30 1020.96 1020.65 1020.40 1020.20 1020.12 1020.52 1021.36 1021.14 1020.93 1020.71 1020.38 1020.18 1020.07 1020.10 1020.00 1019.92 1020.13 1020.56 1021.01 1021.41 1021.41 1021.54 1021.54 1021.86 1021.82 1021.70 1021.70 1021.68 1021.71 1021.76 1021.59 1021.90 1022.22 1022.46 1022.64 1022.85
1023.01 1023.01 1022.91 1022.73 1022.54 1022.24 1021.81 1021.47 1021.15 1020.81 1020.50 1020.34 1020.23 1020.35 1021.12 1021.05 1021.06 1020.93 1020.84 1020.43 1020.30 1020.11 1020.16 1020.13 1020.07 1020.60 1021.24 1021.63 1022.07 1022.30 1022.34 1022.56 1022.36 1022.20 1022.07 1021.95 1022.06 1022.01 1022.12 1022.15 1022.24 1022.37 1022.51 1022.72 1022.92
1023.00 1023.03 1023.00 1022.87 1022.60 1022.18 1021.67 1021.26 1020.84 1020.60 1020.46 1020.35 1020.44 1020.70 1021.58 1021.12 1021.38 1021.47 1021.27 1021.08 1020.64 1020.29 1020.24 1020.28 1020.42 1021.86 1022.22 1022.77 1023.46 1023.60 1023.42 1023.34 1022.92 1022.90 1022.84 1022.65 1022.54 1022.17 1022.23 1022.22 1022.40 1022.60 1022.86 1023.10 1023.31
1023.00 1023.06 1023.01 1022.90 1022.54 1022.14 1021.50 1021.20 1020.82 1020.62 1020.75 1020.67 1021.14 1021.79 1022.18 1022.80 1022.38 1022.00 1021.43 1021.14 1020.96 1020.79 1020.80 1021.12 1022.12 1023.23 1024.00 1024.08 1024.70 1024.49 1024.14 1023.83 1023.67 1023.77 1023.47 1023.43 1023.08 1022.62 1022.55 1022.65 1022.82 1023.06 1023.24 1023.37 1023.55
1023.15 1023.19 1023.09 1022.82 1022.48 1022.03 1021.55 1021.38 1021.91 1022.24 1022.54 1023.35 1023.62 1023.50 1023.41 1023.09 1022.57 1022.21 1021.86 1021.57 1021.31 1021.81 1022.58 1022.85 1023.78 1024.92 1025.20 1025.22 1025.14 1024.77 1024.73 1024.65 1024.27 1024.52 1024.68 1024.32 1023.95 1023.17 1022.89 1023.01 1023.13 1023.38 1023.51 1023.64 1023.90
1023.29 1023.42 1023.30 1022.90 1022.50 1022.31 1022.34 1023.55 1024.66 1025.03 1024.61 1024.06 1023.88 1023.80 1023.64 1023.68 1023.05 1022.63 1022.08 1022.48 1022.87 1023.66 1023.70 1024.08 1025.09 1025.70 1025.58 1025.51 1025.44 1025.36 1025.55 1025.58 1025.32 1025.55 1025.82 1025.59 1024.76 1023.62 1023.17 1022.94 1023.05 1023.45 1023.81 1024.04 1024.31
1023.66 1023.50 1023.37 1023.05 1022.73 1023.11 1024.03 1025.04 1025.17 1024.95 1024.82 1024.83 1024.62 1024.37 1024.33 1024.07 1024.25 1023.98 1023.55 1023.81 1024.45 1025.08 1025.56 1025.84 1026.64 1026.22 1026.02 1026.44 1026.45 1026.79 1027.01 1027.25 1027.73 1027.34 1027.53 1027.29 1025.64 1024.17 1023.00 1022.96 1023.19 1023.69 1024.10 1024.46 1024.78
1024.06 1023.76 1023.45 1022.98 1023.30 1024.35 1025.06 1025.27 1025.07 1024.99 1025.78 1026.45 1025.23 1024.88 1024.62 1024.57 1024.83 1024.48 1024.38 1024.73 1025.38 1026.49 1026.77 1027.47 1027.38 1027.10 1027.19 1027.75 1028.11 1028.20 1028.42 1028.73 1029.16 1029.81 1030.17 1029.73 1028.17 1025.53 1024.15 1023.91 1024.06 1024.46 1024.76 1024.96 1025.08
1024.19 1024.00 1023.80 1023.03 1024.36 1025.03 1025.65 1025.40 1025.22 1025.25 1027.55 1027.22 1025.99 1024.93 1025.04 1025.42 1025.96 1024.93 1024.96 1024.87 1026.33 1027.41 1027.73 1028.76 1028.45 1028.29 1028.42 1028.85 1028.88 1029.20 1029.38 1030.07 1031.04 1031.93 1032.58 1032.04 1031.27 1026.66 1025.34 1024.51 1024.37 1024.47 1024.80 1025.10 1025.24
1024.18 1023.99 1023.89 1024.25 1024.97 1025.69 1025.53 1025.42 1025.40 1026.91 1028.81 1028.36 1027.49 1026.87 1026.46 1026.73 1026.76 1026.33 1025.74 1025.78 1026.93 1027.71 1028.45 1029.23 1029.21 1029.43 1029.58 1029.64 1029.78 1030.06 1030.66 1031.62 1032.63 1033.66 1035.15 1034.16 1033.12 1028.44 1026.03 1024.86 1024.47 1024.17 1024.39 1024.82 1025.18
1024.41 1024.00 1024.16 1025.04 1026.04 1025.80 1025.65 1025.86 1027.49 1029.68 1030.74 1030.02 1028.94 1028.45 1028.46 1028.48 1027.97 1027.92 1027.80 1028.11 1028.81 1029.50 1030.08 1030.16 1030.37 1030.50 1030.58 1030.58 1030.58 1031.09 1032.34 1033.77 1034.84 1035.80 1036.37 1036.01 1034.09 1028.09 1025.39 1024.73 1024.81 1024.82 1024.94 1025.19 1025.33
1025.11 1025.00 1025.42 1025.51 1025.56 1025.55 1026.09 1027.26 1029.19 1031.23 1031.38 1030.31 1029.87 1029.50 1029.60 1029.66 1029.41 1029.13 1029.06 1029.78 1029.96 1030.38 1031.47 1032.14 1031.61 1032.01 1031.95 1032.11 1032.31 1032.76 1033.76 1035.12 1036.93 1038.11 1037.65 1036.44 1032.77 1026.82 1025.19 1025.27 1025.39 1025.34 1025.28 1025.50 1025.85
1025.00 1025.67 1025.91 1026.10 1025.83 1025.58 1026.81 1029.62 1031.16 1031.57 1030.96 1030.61 1030.24 1030.49 1030.65 1030.51 1030.53 1030.24 1030.22 1030.42 1030.60 1030.86 1031.64 1032.69 1032.89 1032.73 1032.49 1032.49 1033.04 1033.50 1034.33 1035.38 1036.94 1039.32 1038.51 1034.88 1031.32 1027.46 1026.33 1026.33 1026.26 1026.21 1026.30 1026.34 1026.53
1025.67 1026.14 1026.37 1026.26 1025.99 1026.45 1028.40 1031.34 1031.96 1031.57 1031.06 1030.74 1030.82 1031.45 1032.01 1031.69 1031.29 1031.19 1031.12 1030.72 1030.88 1031.13 1031.61 1032.68 1033.27 1033.25 1033.07 1033.12 1033.55 1033.83 1034.63 1035.47 1036.69 1038.31 1038.07 1035.21 1032.84 1029.49 1028.43 1028.17 1027.64 1027.52 1027.36 1027.15 1027.03
1026.18 1026.95 1026.39 1026.15 1026.33 1028.09 1030.96 1032.54 1032.41 1031.62 1031.18 1030.99 1031.04 1031.62 1031.94 1032.20 1031.95 1031.72 1031.10 1030.71 1030.61 1030.99 1031.44 1032.37 1033.50 1033.87 1033.82 1033.84 1033.88 1034.54 1034.92 1035.70 1036.48 1037.10 1037.64 1035.64 1031.32 1028.82 1029.28 1029.51 1029.43 1028.66 1028.17 1027.89 1027.72
1027.06 1027.36 1026.52 1026.22 1027.95 1031.03 1033.00 1033.37 1032.57 1031.89 1031.40 1031.08 1031.05 1031.52 1032.14 1032.52 1032.50 1032.30 1031.46 1030.91 1030.74 1031.06 1031.71 1032.32 1033.53 1034.27 1034.23 1034.01 1033.89 1033.90 1034.19 1034.97 1036.68 1036.96 1036.44 1035.42 1030.53 1029.19 1029.69 1029.78 1029.94 1029.38 1028.62 1027.86 1027.19
1028.07 1028.10 1026.98 1026.97 1030.04 1032.75 1033.55 1033.25 1032.62 1032.18 1031.79 1031.55 1031.60 1031.84 1032.38 1033.09 1033.16 1032.29 1031.54 1030.91 1030.84 1031.15 1031.70 1032.28 1033.87 1034.87 1034.36 1034.64 1034.19 1034.36 1034.30 1034.92 1035.54 1035.64 1034.71 1034.59 1030.17 1028.61 1029.18 1029.55 1029.71 1029.58 1028.38 1027.98 1027.38
1028.63 1029.52 1029.03 1029.54 1031.30 1031.85 1032.84 1033.10 1032.75 1032.18 1031.84 1031.78 1031.92 1032.14 1032.79 1033.32 1033.22 1032.65 1031.80 1031.19 1031.17 1031.49 1031.87 1032.56 1034.10 1035.08 1035.34 1034.79 1034.86 1034.90 1034.37 1034.57 1035.10 1035.28 1032.93 1031.99 1028.25 1029.08 1028.85 1029.63 1029.28 1028.86 1028.20 1027.88 1027.17
1029.26 1031.03 1031.74 1032.46 1031.99 1031.76 1031.91 1032.24 1032.39 1032.10 1032.01 1031.89 1032.12 1032.38 1032.85 1033.62 1033.49 1033.08 1032.31 1031.77 1031.71 1031.98 1032.68 1033.76 1035.43 1036.03 1035.76 1035.59 1035.55 1034.90 1034.11 1034.35 1034.42 1032.95 1033.62 1029.06 1030.51 1028.54 1028.74 1029.34 1029.05 1028.55 1027.86 1027.54 1026.98
1029.11 1030.65 1031.86 1032.36 1031.99 1031.74 1031.79 1031.76 1031.69 1031.73 1031.86 1032.17 1032.36 1032.21 1032.76 1033.06 1032.86 1032.90 1032.63 1032.54 1032.47 1032.90 1033.72 1034.97 1036.41 1037.70 1037.30 1036.45 1035.72 1035.02 1033.03 1032.85 1033.04 1032.83 1032.10 1030.60 1029.81 1028.05 1028.50 1029.09 1029.04 1028.24 1027.81 1027.37 1026.72
1029.23 1029.61 1030.13 1032.57 1032.12 1031.96 1031.23 1031.06 1031.08 1031.18 1031.67 1031.68 1031.95 1032.39 1032.76 1032.67 1032.74 1032.83 1032.98 1033.12 1033.19 1033.59 1034.56 1036.13 1037.61 1038.95 1038.50 1037.40 1036.01 1034.38 1031.73 1031.53 1031.79 1031.57 1031.09 1030.48 1028.74 1029.04 1028.63 1028.60 1028.36 1027.67 1027.29 1026.88 1026.34
Wind_Speed
10 11 12 14 15 16 16 17 17 14 13 12 9 8 8 11 5 7 7 6 8 14 12 6 1 3 2 3 4 3 5 1 2 4 2 6 3 4 2 4 3 3 1 4 7
9 10 12 13 15 16 17 17 16 14 12 11 11 9 7 7 3 8 5 13 11 9 6 7 3 4 4 3 4 5 4 4 1 0 2 5 3 4 4 3 2 2 4 5 8
9 10 11 12 14 15 16 16 16 13 12 10 10 9 8 3 1 4 14 15 12 3 1 2 3 3 4 3 4 1 3 1 1 2 2 5 3 5 2 2 1 3 4 5 6
7 9 10 11 14 15 15 15 15 13 12 10 9 9 8 2 2 3 17 14 9 1 2 2 4 4 3 2 2 3 1 1 2 4 3 4 6 5 1 2 4 7 8 6 7
6 7 8 10 12 14 15 14 14 12 9 9 9 8 3 6 2 6 15 11 4 3 4 3 4 2 3 2 2 3 1 3 3 6 3 4 3 4 4 3 4 6 7 7 6
6 7 7 8 11 13 15 14 14 11 8 9 8 6 1 6 4 7 9 5 5 5 4 6 3 2 4 3 3 0 2 2 4 4 2 3 2 3 2 3 5 6 6 5 6
6 6 6 7 11 13 14 13 14 10 8 7 7 3 8 1 3 7 7 3 3 3 3 2 2 4 2 3 2 2 2 3 6 6 3 2 1 2 6 3 3 2 3 3 3
6 6 6 7 12 13 14 14 13 8 8 6 6 3 4 3 3 6 7 2 6 3 1 1 2 5 4 0 6 5 5 4 4 8 3 4 7 1 6 3 3 2 0 0 2
2 4 6 10 13 14 15 14 8 6 5 5 5 5 3 7 6 6 5 4 6 2 2 1 5 4 6 4 5 7 0 1 5 4 4 2 5 3 5 2 5 1 2 3 2
4 4 7 11 14 14 15 6 7 6 6 2 3 5 7 6 6 7 5 4 5 3 4 7 7 4 5 6 2 3 3 3 3 6 6 3 9 5 3 3 6 4 3 2 1
6 5 7 9 12 14 6 3 6 9 11 5 2 2 4 9 4 7 5 5 3 8 5 5 8 3 2 2 3 1 1 3 2 3 4 4 7 10 6 4 6 7 6 4 3
6 6 7 9 10 12 4 7 2 1 6 5 2 2 1 2 5 12 8 6 6 4 6 7 4 4 3 4 3 5 1 4 4 4 2 5 13 11 7 7 6 7 6 5 3
6 8 10 10 4 7 6 3 4 1 5 6 4 4 5 6 4 10 7 3 6 6 6 6 2 5 3 6 5 4 3 4 3 8 2 8 8 6 4 3 3 2 2 1 2
9 9 12 3 7 1 4 5 4 1 8 12 8 6 5 3 4 3 4 3 7 2 3 5 5 4 5 5 4 1 3 2 3 6 3 6 8 8 5 7 3 4 4 4 3
9 7 10 9 5 4 3 5 5 4 7 8 9 4 6 7 4 7 4 6 4 3 5 3 5 6 7 1 1 2 4 3 3 4 4 6 5 11 5 7 8 9 9 7 6
12 7 4 5 4 1 4 4 4 11 2 7 5 8 6 8 8 8 7 8 3 4 6 2 1 3 1 1 2 2 1 6 4 4 4 4 5 10 4 6 6 5 9 9 7
7 15 7 2 1 4 2 4 8 9 4 8 5 6 1 6 7 9 6 8 4 6 6 6 3 3 4 2 2 5 7 5 8 6 7 2 2 14 6 7 5 9 8 7 6
8 6 4 3 1 1 4 8 11 3 5 2 3 3 4 6 4 8 3 4 5 5 4 4 8 5 6 4 1 4 6 7 6 3 6 3 7 9 4 5 7 8 7 6 6
4 3 3 5 4 3 7 8 8 7 1 3 2 6 6 3 1 4 4 1 1 2 5 3 5 1 3 1 3 2 3 3 8 1 5 3 9 12 2 7 5 6 4 6 6
3 3 3 8 3 5 8 3 2 2 2 1 3 3 0 5 4 5 3 2 2 3 3 2 4 2 3 1 4 4 2 4 4 2 6 7 7 8 6 7 7 6 7 8 6
4 4 3 5 4 8 5 6 3 4 1 2 2 0 2 2 1 1 2 0 0 1 3 5 5 6 2 2 5 3 2 3 3 4 5 4 8 9 8 4 7 9 8 8 8
3 3 3 2 7 1 3 3 3 1 2 0 1 3 3 1 2 2 3 5 0 3 1 0 4 3 8 1 2 3 5 5 6 7 4 2 12 1 6 5 4 10 9 8 9
3 2 3 3 4 2 4 1 0 1 1 0 0 2 2 3 3 2 2 0 1 1 2 3 3 5 9 3 4 3 4 4 3 2 9 3 10 3 3 6 6 8 10 8 9
4 3 6 6 1 7 5 1 0 1 1 1 0 2 2 3 0 3 2 1 0 0 3 1 2 8 9 9 3 2 3 4 6 3 6 10 25 15 19 7 11 10 9 10 10
5 2 3 2 4 3 3 5 3 2 2 1 4 3 5 1 3 3 2 3 1 2 3 4 5 2 5 6 2 6 13 7 11 12 6 28 6 21 19 15 15 8 10 10 12
5 5 3 2 1 3 2 6 7 3 5 2 3 3 4 5 6 3 2 2 3 1 3 3 3 3 6 5 1 6 16 12 12 14 12 19 24 18 10 4 7 10 10 11 13
1 2 5 2 1 4 4 5 6 6 3 1 4 4 3 5 3 2 2 2 3 3 4 2 4 4 7 4 6 9 9 6 3 5 6 6 10 3 13 14 8 10 7 11 12
Wind_Direction
353 355 357 358 358 358 358 354 352 355 356 351 357 357 3 343 356 27 35 306 317 325 334 287 360 351 47 80 55 115 66 213 214 157 298 351 44 13 286 105 47 31 31 314 125
349 350 352 355 353 354 354 353 350 348 357 353 349 350 353 359 47 53 339 340 339 349 20 19 28 0 36 37 25 78 98 228 263 347 335 335 38 329 15 28 8 26 46 73 123
350 345 346 348 351 351 352 350 346 346 351 353 343 338 337 20 52 338 344 343 337 7 94 348 316 10 54 34 22 114 153 222 355 12 351 330 3 328 36 325 277 233 164 137 140
328 334 341 344 348 346 348 347 344 345 349 345 342 338 330 44 48 305 342 338 337 316 337 17 28 47 62 81 30 79 25 18 16 11 11 1 317 345 38 248 295 262 154 146 168
314 326 333 343 345 344 344 344 344 344 346 344 345 337 348 54 13 311 332 335 15 6 51 43 63 68 99 80 47 74 33 38 24 31 359 337 329 289 288 6 32 116 136 158 173
300 310 321 343 342 338 335 341 340 338 340 342 341 331 21 75 309 327 331 335 26 21 15 41 79 101 94 64 68 31 66 46 26 26 9 17 302 4 9 10 81 129 160 172 188
284 294 324 331 331 329 331 333 330 329 337 348 350 56 56 136 337 328 350 326 359 28 32 25 49 64 50 73 322 79 31 1 22 345 10 340 296 273 324 34 110 168 202 221 230
282 309 324 332 329 326 326 325 322 311 323 338 358 58 82 306 304 3 335 339 1 20 48 353 45 91 49 207 20 40 41 20 347 1 9 62 276 291 340 262 199 224 289 48 60
286 336 336 336 326 321 320 321 310 319 326 352 37 68 3 330 22 317 6 344 308 3 24 58 64 74 17 59 16 15 254 320 321 64 327 57 278 294 351 291 221 182 107 113 83
58 26 349 331 322 327 317 304 323 46 360 24 59 45 12 315 305 325 317 351 41 328 24 41 47 66 29 52 218 309 360 310 278 341 359 300 268 283 315 272 226 215 200 186 287
73 8 352 336 336 339 358 19 19 360 33 88 318 100 321 303 286 346 348 336 35 49 41 5 66 59 23 347 269 281 299 298 316 31 339 268 280 273 270 255 234 227 224 230 282
59 11 351 342 342 3 56 72 78 160 72 35 38 20 301 299 356 354 6 54 54 35 351 23 58 343 294 17 67 38 360 307 288 22 352 356 281 256 236 236 209 216 231 257 307
29 6 347 334 28 36 65 59 318 305 80 14 14 10 329 12 33 333 16 26 66 47 8 104 342 314 71 31 32 46 14 352 289 329 73 329 290 305 267 246 226 220 216 284 322
10 1 2 355 44 350 45 321 322 269 74 329 346 357 346 344 40 314 9 70 33 124 44 74 319 24 52 66 18 9 346 318 344 37 270 20 282 298 331 298 275 246 247 255 274
15 11 42 57 142 60 288 325 322 45 61 307 311 300 339 74 299 351 351 31 71 19 74 274 6 19 54 321 349 241 32 38 67 83 40 352 66 274 358 311 265 232 229 230 233
41 35 45 26 49 19 326 334 45 42 301 336 321 348 8 13 359 314 17 38 135 81 37 90 45 48 2 351 21 1 44 35 56 92 22 232 112 284 252 220 275 249 215 212 210
53 56 70 53 49 330 338 48 40 88 338 309 329 3 79 348 355 23 25 17 46 49 355 352 17 357 26 341 2 54 48 339 354 9 221 344 38 243 258 243 250 285 247 214 206
31 41 27 80 309 59 50 48 68 241 238 348 324 317 54 353 16 351 56 37 36 64 91 95 335 15 353 50 334 37 126 150 233 261 275 356 243 252 222 327 287 284 265 192 217
65 4 32 348 339 74 74 51 186 198 215 325 313 52 331 6 59 37 21 154 268 41 123 74 304 40 42 359 79 278 38 144 98 99 36 267 294 298 319 304 300 289 263 235 243
65 40 329 320 357 60 72 178 160 255 317 230 104 119 276 304 24 51 350 291 14 45 123 172 354 280 287 132 31 137 157 31 5 336 307 293 275 242 326 310 314 288 251 257 260
49 42 268 342 57 43 109 208 226 236 234 19 144 30 231 258 270 264 251 192 44 127 100 132 100 286 34 193 187 18 341 41 117 137 179 284 257 213 220 231 298 291 269 257 260
82 32 312 1 49 65 81 205 242 40 5 75 84 117 177 171 303 314 278 210 37 134 76 30 130 264 229 339 244 220 217 162 121 270 226 173 272 77 240 233 229 290 282 259 239
90 259 327 66 104 354 309 349 92 14 14 218 77 13 100 174 12 245 283 309 242 180 168 176 321 1 339 353 344 244 213 134 120 76 208 123 263 253 262 299 263 265 288 278 263
80 19 333 47 45 122 135 252 314 332 157 123 96 114 150 17 10 264 271 278 316 230 125 109 186 176 202 212 128 260 249 183 134 156 278 213 276 296 295 320 304 294 265 279 275
30 234 180 287 330 102 107 142 133 220 311 102 350 209 163 347 327 263 261 301 22 352 92 123 209 260 256 239 175 239 257 200 196 235 212 278 254 279 293 305 295 288 288 296 292
124 129 353 138 344 114 18 215 171 243 148 253 170 182 166 177 197 270 187 225 246 30 155 26 272 72 299 346 273 265 264 252 239 254 259 269 278 282 284 352 299 287 298 299 295
204 58 107 318 92 90 229 177 211 147 216 171 191 131 202 240 229 270 273 277 255 177 170 114 121 61 265 320 329 303 233 206 222 223 177 227 246 335 320 321 293 294 282 279 279